Regional Weather Roundup
Issued by NWS

Home | Current Version | Previous Version | Text Only | Print | Product List | Glossary On
Versions: 1 2 3 4 5 6 7 8 9 10 11 12 13 14 15 16 17 18 19 20 21 22 23 24 25 26 27
000
ASUS44 KJAN 031010
RWRMS

MISSISSIPPI HOURLY WEATHER ROUNDUP
NATIONAL WEATHER SERVICE JACKSON MS
500 AM CDT TUE AUG 03 2021

NOTE: "FAIR: INDICATES FEW OR NO CLOUDS BELOW 12,000 FEET WITH NO
SIGNIFICANT WEATHER AND/OR OBSTRUCTIONS TO VISIBILITY.

MSZ001>002-007>008-010>013-018>021-025>028-034>036-031100-
NORTHWEST MISSISSIPPI

CITY           SKY/WX    TMP DP  RH WIND       PRES   REMARKS
BATESVILLE     FAIR      70  68  94 CALM      30.00S FOG
CLARKSDALE     MOCLDY    72  72 100 CALM      30.00S FOG
GREENWOOD      PTCLDY    71  68  90 CALM      29.98F FOG
GREENVILLE     CLEAR     70  69  97 N3        29.97F
OLIVE BRANCH   MOCLDY    68  64  88 NE6       30.01S
OXFORD         PTCLDY    66  66 100 CALM      30.02S
TUNICA           N/A     68  66  94 E3        30.01S
WINONA         FAIR      67  67 100 CALM      29.98F FOG
$$

MSZ003>006-009-014>017-022>024-029>033-037>039-031100-
NORTHEAST MISSISSIPPI

CITY           SKY/WX    TMP DP  RH WIND       PRES   REMARKS
ABERDEEN       FOG       68  68 100 CALM      30.00S VSB 3/4
COLUMBUS AFB   PTCLDY    68  68 100 CALM      29.96S FOG
CORINTH        MOSUNNY   64  63  94 W3        30.02R
GOLDN TRIANGLE CLEAR     68  68 100 N3        29.98F
STARKVILLE     CLOUDY    66  66 100 CALM      29.97S FOG
TUPELO         CLEAR     69  66  90 N6        29.99S
$$

MSZ040-058-031100-
CENTRAL MISSISSIPPI

CITY           SKY/WX    TMP DP  RH WIND       PRES   REMARKS
JACKSON INTL   CLOUDY    74  71  91 CALM      29.96S
JACKSON HAWKNS CLOUDY    75  73  93 CALM      29.97S
MERIDIAN KEY   PTCLDY    70  68  93 N3        29.96S
MERIDIAN NAS   PTCLDY    70  69  97 NW5       29.97S
RAYMOND        CLOUDY    73  73 100 CALM      29.96S
VICKSBURG VKS  CLOUDY    75  75 100 CALM      29.94S
$$

MSZ059>079-031100-
SOUTH MISSISSIPPI

CITY           SKY/WX    TMP DP  RH WIND       PRES   REMARKS
BROOKHAVEN     CLOUDY    73  73 100 CALM      29.98S FOG
HATTIESBURG    CLOUDY    75  71  87 CALM      29.96R
LAUREL         CLOUDY    73  69  89 CALM      29.96R
MCCOMB         CLOUDY    74  74 100 CALM      29.95S FOG
NATCHEZ        CLOUDY    73  72  96 CALM      29.97R FOG
PINE BELT      CLOUDY    73  73 100 N3        29.97R
$$

MSZ080>082-031100-
COASTAL MISSISSIPPI

CITY           SKY/WX    TMP DP  RH WIND       PRES   REMARKS
BILOXI         MOCLDY    75  74  98 CALM      29.92R
PASCAGOULA     CLOUDY    75  74  96 CALM      29.92S
GULFPORT       MOCLDY    75  74  96 CALM      29.92R
$$

LAZ007>009-015>016-023>026-031100-
NORTHEAST LOUISIANA

CITY           SKY/WX    TMP DP  RH WIND       PRES   REMARKS
TALLULAH/VBURG CLOUDY    78  73  84 CALM      29.96S
VIDALIA        CLOUDY    74  73  96 CALM      29.95R
$$



USA.gov is the U.S. government's official web portal to all federal, state and local government web resources and services.